Temperature
11 11 12 11 11 11 11 10 10 10 9 8 8 7 7 7 7 7 6 6 6 6 6 6 6 6 6 6 6 6 5 5 4 4 4 4 4 4 4 4 3 3 3
11 11 11 11 10 10 10 10 9 8 8 7 7 6 6 6 6 6 6 5 5 5 5 5 5 5 5 5 5 5 5 5 4 3 3 3 3 3 3 3 3 3 2
10 10 10 10 10 9 9 9 8 7 6 6 5 5 5 5 5 5 5 5 5 5 5 5 5 5 5 5 5 4 4 4 4 3 3 3 3 2 2 2 2 2 2
10 10 10 9 9 9 8 8 7 6 5 4 4 4 4 5 4 4 4 4 4 4 4 4 4 4 4 4 4 4 3 3 3 3 2 2 2 1 1 2 1 1 1
10 9 9 9 9 8 7 6 5 4 4 3 3 3 4 4 4 4 4 4 4 4 4 3 3 3 3 3 3 3 2 2 2 1 1 1 0 0 0 1 0 1 0
9 9 9 8 8 7 6 5 4 3 2 2 2 2 3 3 3 3 3 3 3 3 3 3 3 2 2 2 2 2 2 1 1 1 0 -0 -1 -1 -1 -1 -0 -0 -1
9 9 9 8 7 6 5 4 3 2 2 1 1 2 2 2 2 3 2 2 2 2 2 2 2 2 2 2 2 1 1 1 0 -0 -0 -1 -1 -1 -1 -1 -1 -1 -1
9 9 8 8 7 5 4 3 2 1 1 1 1 1 2 2 2 2 2 2 2 2 2 2 1 1 1 1 1 1 0 -0 -0 -1 -1 -1 -1 -2 -2 -2 -2 -2 -2
9 8 8 7 6 5 3 2 1 1 0 1 1 1 1 1 1 1 1 1 1 1 1 1 1 1 1 0 0 0 -0 -0 -1 -1 -1 -2 -2 -2 -2 -2 -2 -3 -3
8 8 7 6 5 4 3 1 1 0 0 0 0 0 1 1 1 1 1 1 1 1 1 1 1 0 0 -0 -0 -0 -1 -1 -1 -1 -2 -2 -2 -2 -3 -3 -3 -3 -4
7 7 7 6 4 3 2 1 0 0 0 0 0 1 1 1 1 1 1 1 1 1 1 1 0 0 -0 -0 -1 -1 -1 -2 -2 -2 -2 -2 -3 -3 -3 -3 -4 -4 -4
7 6 6 5 4 3 2 1 0 0 0 0 0 1 1 1 1 1 1 1 1 1 0 0 0 -0 -0 -1 -1 -1 -1 -2 -2 -2 -3 -3 -3 -3 -4 -4 -4 -4 -4
6 6 5 4 4 3 2 2 1 0 0 1 1 1 1 1 1 1 1 1 1 0 0 0 -0 -0 -1 -1 -1 -1 -2 -2 -2 -3 -3 -3 -3 -4 -4 -4 -4 -4 -4
5 5 5 4 4 3 2 1 1 1 1 1 1 1 1 1 1 1 1 1 0 0 0 -0 -0 -1 -1 -1 -1 -1 -2 -2 -3 -3 -3 -4 -4 -4 -4 -4 -4 -4 -4
5 4 4 4 3 3 2 2 2 2 1 1 1 1 1 1 1 1 1 0 0 0 -0 -0 -0 -0 -1 -1 -1 -2 -2 -2 -3 -3 -4 -4 -4 -4 -4 -5 -5 -5 -5
4 4 4 3 3 3 2 2 2 2 1 1 1 1 1 1 1 0 0 0 -0 -0 -0 -0 -0 -0 -1 -1 -1 -2 -2 -3 -3 -3 -4 -4 -4 -4 -5 -5 -5 -5 -5
3 3 3 3 3 2 2 2 2 1 1 1 1 1 1 1 0 0 -0 -0 -1 -1 -1 -0 -0 -1 -1 -2 -2 -2 -3 -3 -3 -3 -4 -4 -4 -5 -5 -5 -5 -5 -5
3 2 2 2 2 2 2 2 2 1 1 2 1 1 1 1 0 0 -0 -1 -1 -1 -0 -1 -1 -1 -2 -2 -3 -3 -3 -3 -3 -3 -4 -4 -5 -5 -5 -5 -5 -6 -6
2 2 2 2 2 1 1 1 1 1 1 1 1 1 1 0 0 -0 -1 -1 -0 -0 -1 -1 -1 -2 -2 -2 -3 -3 -3 -3 -4 -4 -4 -4 -5 -5 -5 -5 -6 -6 -6
2 2 1 1 1 1 1 1 1 1 1 1 1 1 1 0 0 0 -0 -0 -0 -1 -1 -1 -2 -2 -2 -3 -3 -3 -4 -4 -4 -4 -4 -5 -5 -5 -5 -6 -6 -6 -7
1 1 1 1 1 1 1 1 1 1 1 1 1 1 1 0 0 0 -0 -0 -0 -0 -1 -2 -2 -3 -3 -3 -3 -4 -4 -4 -4 -4 -4 -5 -5 -6 -6 -6 -7 -7 -7
0 0 0 0 1 1 0 0 0 0 0 0 1 1 0 0 0 -0 -0 -0 -0 -1 -1 -2 -2 -3 -3 -4 -4 -4 -4 -4 -4 -5 -5 -5 -5 -6 -6 -7 -7 -7 -8
-0 -0 -0 -0 -0 -0 -0 -0 -0 -0 -0 -0 0 0 0 0 0 -0 -0 -0 -1 -1 -1 -2 -3 -3 -4 -4 -4 -4 -4 -4 -5 -5 -5 -5 -6 -6 -7 -7 -7 -8 -8
-1 -1 -1 -1 -1 -1 -1 -0 -0 -0 -0 -0 -0 -0 -0 -0 -0 -0 -1 -1 -1 -2 -2 -3 -3 -3 -4 -4 -4 -4 -5 -5 -5 -5 -6 -6 -6 -6 -7 -7 -8 -8 -9
-1 -1 -1 -1 -1 -1 -1 -1 -1 -1 -1 -1 -1 -1 -1 -1 -1 -1 -1 -2 -2 -2 -3 -3 -3 -4 -4 -4 -5 -5 -5 -5 -5 -6 -6 -6 -6 -7 -7 -8 -8 -9 -9
-2 -2 -2 -2 -2 -1 -1 -1 -1 -1 -1 -1 -1 -1 -2 -2 -2 -2 -2 -2 -3 -3 -3 -4 -4 -4 -4 -5 -5 -5 -5 -5 -6 -6 -6 -7 -7 -7 -8 -8 -9 -9 -10
Wind_Speed
7 7 6 5 4 3 2 3 3 2 2 2 2 2 3 3 3 2 2 3 4 4 4 4 5 4 3 3 3 3 3 2 0 1 2 3 4 4 6 7 9 9 10
7 7 6 6 4 3 3 4 3 3 3 3 2 2 3 3 3 3 3 4 4 5 5 5 4 4 5 4 4 4 3 3 2 1 2 3 3 3 3 4 5 6 8
7 7 6 5 5 4 4 4 3 3 3 2 2 3 3 3 3 4 5 5 6 6 5 5 5 5 5 4 4 4 3 3 2 2 2 2 1 1 2 2 2 3 5
7 7 6 5 5 5 5 4 3 3 2 3 3 4 4 3 3 4 5 6 6 6 6 6 6 6 5 4 4 3 3 2 2 2 1 1 0 0 1 2 2 3 3
8 7 6 6 6 5 5 4 3 3 3 3 4 4 4 3 3 3 4 5 6 6 6 6 6 7 7 6 4 4 4 3 2 1 1 1 1 2 2 2 3 3 2
8 7 7 7 6 5 5 4 4 3 3 3 3 3 4 4 4 4 5 5 5 6 5 4 5 5 6 7 8 7 6 4 3 2 1 1 2 2 3 3 3 3 3
8 8 8 7 7 6 5 5 5 4 3 3 3 4 6 5 6 6 7 6 6 5 4 3 3 3 4 3 4 5 5 6 5 2 2 2 2 2 2 3 2 1 2
9 8 9 8 7 7 6 6 5 4 4 3 3 5 6 6 6 7 8 6 5 4 3 2 2 2 3 3 3 3 2 2 3 4 4 3 3 3 3 1 1 2 3
9 9 9 9 8 8 7 6 5 4 4 4 3 4 5 5 6 6 5 4 3 3 2 2 2 3 3 3 2 1 1 1 2 2 1 1 2 3 3 2 3 3 2
9 9 9 9 9 8 8 6 5 5 5 5 4 3 4 4 6 6 5 2 3 3 3 2 2 2 1 1 1 2 1 1 1 0 2 2 2 2 1 2 2 1 0
8 8 8 8 8 8 7 6 6 6 6 5 5 4 4 5 7 8 7 2 2 2 2 2 3 4 2 2 1 1 1 1 2 2 2 2 1 1 1 2 2 2 2
8 8 8 8 8 8 8 7 7 7 6 6 5 5 5 6 7 8 9 7 4 2 2 2 3 5 3 3 3 3 3 2 2 2 2 2 1 1 1 1 1 2 4
8 8 8 8 7 8 9 9 8 7 6 6 5 5 5 5 7 11 11 10 8 4 3 4 5 5 4 3 5 5 3 2 2 3 3 2 2 2 2 1 4 6 8
8 8 8 9 8 8 7 7 7 7 7 6 6 6 5 5 5 5 5 6 8 6 4 5 6 7 5 5 5 4 3 4 3 3 2 2 1 2 2 2 2 2 3
8 8 8 8 8 8 7 7 8 8 8 8 7 6 6 6 8 12 8 6 6 6 5 3 3 3 4 4 4 5 4 4 4 3 3 2 2 2 3 3 2 2 3
8 8 7 7 7 7 7 6 10 10 13 13 11 9 8 9 10 13 14 13 12 11 7 4 5 5 6 5 5 5 4 5 4 4 4 3 3 3 3 3 3 4 5
8 8 7 7 7 7 7 7 6 9 13 14 14 14 12 10 11 11 12 12 13 12 7 5 6 6 5 5 5 5 5 5 4 4 4 4 4 4 4 4 4 4 5
8 9 9 8 8 8 8 7 7 6 7 7 12 18 18 16 14 13 13 10 8 9 6 7 7 6 6 6 6 5 5 5 5 5 5 5 5 5 5 5 5 6 6
8 7 7 7 7 8 7 7 7 7 7 6 5 8 16 17 17 16 14 8 8 8 8 8 7 7 6 6 6 6 6 6 5 5 5 6 5 5 6 6 6 10 9
7 10 9 7 7 8 8 8 8 8 8 8 8 7 6 8 8 10 10 9 9 9 8 8 7 7 7 6 6 6 6 6 6 6 6 6 6 6 7 7 7 7 7
6 7 11 8 7 8 8 9 8 8 8 9 8 8 11 9 9 10 10 10 10 10 9 8 7 7 7 6 6 7 8 7 7 7 6 6 6 6 6 7 7 8 8
5 5 6 7 7 7 7 7 8 8 9 9 7 7 14 10 8 9 9 10 9 8 7 7 7 7 7 8 8 8 8 8 7 7 7 6 6 6 7 7 7 7 8
5 5 5 6 6 9 8 7 8 8 8 8 7 7 7 9 9 9 9 8 7 6 6 6 7 7 7 10 11 8 8 8 8 8 7 7 7 7 7 8 8 9 9
5 5 5 5 5 6 6 6 7 7 7 7 7 7 7 8 8 8 7 6 6 6 6 7 7 8 10 10 12 13 14 14 13 11 9 8 7 7 7 8 9 10 10
4 4 4 5 5 5 5 5 6 6 6 6 6 6 6 6 7 6 6 6 7 7 8 8 9 10 12 13 13 14 15 16 15 13 11 8 8 8 8 9 9 10 11
4 4 4 4 4 4 5 5 5 5 5 5 5 5 5 6 6 6 5 6 6 6 7 7 10 12 13 14 16 17 17 17 16 16 12 8 9 9 9 9 11 11 12
Wind_Direction
135 129 124 115 109 107 110 101 87 77 61 50 52 45 41 23 22 72 75 70 89 87 75 76 71 64 68 51 40 41 37 32 211 95 87 62 55 40 23 23 28 30 30
139 132 125 121 125 128 116 98 87 83 74 62 59 74 64 40 32 71 85 75 85 92 87 85 80 75 68 52 53 52 43 33 41 91 77 54 51 33 18 21 24 27 29
138 137 138 143 146 140 121 107 100 97 95 85 78 88 80 60 54 67 87 83 78 74 72 75 71 79 73 60 57 49 36 40 42 70 73 60 52 18 11 8 15 20 25
148 150 151 150 141 126 116 111 111 115 122 115 100 93 90 78 70 74 92 96 91 81 72 68 63 67 69 64 63 42 32 45 54 73 89 88 76 330 31 13 1 8 5
155 158 155 140 124 118 123 125 118 113 108 104 108 111 111 100 87 94 107 113 109 98 84 78 74 75 72 67 66 43 34 42 49 51 53 22 21 47 33 14 4 343 356
164 164 149 138 136 141 145 141 139 132 121 115 121 125 112 101 107 110 113 105 106 105 100 91 89 71 76 73 68 61 54 56 48 32 357 38 51 52 37 25 18 14 342
167 160 153 152 155 156 156 153 152 151 147 144 140 124 110 115 124 117 107 104 103 107 109 102 101 92 70 63 66 66 61 58 53 52 54 48 65 54 51 22 20 2 285
168 163 159 158 160 160 164 164 160 155 156 150 139 123 124 132 130 122 115 107 112 116 113 106 104 108 83 63 60 55 46 66 59 61 71 56 65 53 46 16 329 328 303
174 169 164 162 164 166 171 168 158 152 147 137 124 120 127 140 145 143 131 130 141 152 148 108 87 108 101 62 48 357 316 197 135 104 55 9 1 359 1 30 16 24 340
176 167 161 163 168 172 172 165 156 152 150 141 138 139 146 161 174 175 170 169 169 177 180 175 149 133 119 44 20 350 355 32 61 343 291 275 256 261 346 99 130 129 302
157 154 157 163 167 167 164 162 159 157 156 160 168 183 191 200 197 198 200 192 187 178 176 184 183 176 208 270 294 297 270 11 349 316 295 266 229 200 128 97 104 144 181
150 154 159 164 166 166 163 166 167 166 171 180 187 201 210 208 205 209 213 216 210 177 189 186 179 182 224 260 268 261 266 308 316 298 285 267 222 169 134 105 312 269 239
155 162 166 169 169 169 173 175 177 179 185 192 196 203 206 200 207 217 218 218 219 200 195 192 190 211 240 266 263 258 259 251 264 267 263 248 206 183 175 262 278 272 268
169 172 173 176 177 178 181 181 184 188 193 196 200 204 204 198 199 203 208 220 223 221 215 224 230 238 238 247 258 257 232 226 230 237 254 241 194 187 217 228 249 279 292
178 179 179 182 182 187 191 195 194 197 199 199 202 198 197 208 213 205 194 199 196 201 189 189 196 214 223 230 229 227 223 227 237 226 238 246 245 241 241 228 225 240 258
189 187 186 187 188 188 190 203 212 208 214 215 207 202 210 212 212 211 209 209 208 208 201 200 214 220 223 224 222 218 216 218 217 213 216 225 238 245 253 254 240 241 258
200 194 189 190 193 194 195 200 210 219 224 227 226 224 222 218 217 214 213 214 216 216 216 215 222 224 223 218 214 214 220 219 210 206 211 219 226 235 243 251 254 256 260
207 202 195 196 198 201 203 205 205 205 213 227 229 230 230 228 224 220 217 212 220 221 217 221 224 222 218 215 215 217 219 218 211 211 213 218 220 227 238 245 249 252 261
211 208 204 201 200 202 202 205 210 214 220 221 212 224 228 228 227 225 218 213 216 220 221 222 221 219 216 214 214 213 213 214 214 211 216 218 219 222 236 243 248 261 265
221 216 207 204 201 202 203 207 213 217 222 224 225 220 200 203 214 218 216 215 220 224 221 221 219 216 213 211 210 210 214 217 218 219 222 222 220 222 234 241 246 253 258
228 221 212 209 208 208 208 212 215 218 222 227 230 219 204 205 216 216 215 218 222 224 221 218 216 212 211 209 208 211 215 220 219 219 221 222 220 227 233 241 247 251 257
239 225 215 215 214 212 214 213 214 219 224 230 233 227 224 220 223 224 224 223 222 219 214 211 214 212 209 208 208 211 217 222 222 220 221 221 222 230 237 243 248 253 257
250 240 226 218 214 219 219 214 214 218 223 226 226 220 220 222 226 229 230 226 217 212 207 206 213 215 211 211 209 207 215 221 219 213 216 222 226 230 235 240 245 252 256
256 248 237 225 217 216 218 217 216 218 219 222 223 224 223 225 229 231 228 222 216 213 209 210 214 217 213 213 216 218 222 227 223 218 213 219 226 232 236 242 248 252 256
261 252 241 230 222 221 223 221 217 217 219 222 224 225 224 225 230 231 223 218 215 216 215 214 217 220 221 220 220 222 228 233 231 223 216 216 227 232 238 244 249 253 253
265 255 248 237 227 221 219 221 220 218 220 222 223 222 222 224 227 228 221 216 218 218 217 216 219 220 223 226 229 231 234 238 238 234 223 220 227 235 237 244 247 249 254
Height
1506 1508 1510 1511 1513 1513 1513 1513 1513 1512 1512 1511 1511 1511 1511 1510 1510 1510 1510 1509 1509 1509 1509 1508 1508 1509 1509 1509 1510 1510 1510 1511 1512 1512 1512 1511 1510 1509 1508 1507 1507 1506 1505
1503 1505 1506 1508 1509 1509 1509 1508 1508 1507 1507 1506 1506 1506 1506 1506 1506 1506 1506 1505 1505 1505 1505 1505 1505 1505 1505 1506 1506 1506 1507 1507 1508 1508 1508 1507 1507 1506 1505 1505 1504 1504 1503
1499 1501 1503 1504 1504 1504 1504 1504 1503 1502 1502 1502 1502 1502 1502 1502 1502 1502 1502 1502 1502 1502 1502 1502 1502 1502 1502 1503 1503 1503 1503 1503 1504 1504 1504 1504 1503 1503 1503 1502 1502 1502 1501
1496 1498 1499 1500 1500 1500 1499 1499 1498 1498 1498 1498 1498 1498 1498 1498 1499 1499 1499 1499 1499 1499 1499 1499 1499 1499 1499 1500 1500 1500 1500 1500 1500 1500 1500 1500 1500 1499 1499 1499 1499 1499 1498
1493 1494 1495 1496 1496 1495 1495 1494 1494 1494 1494 1494 1494 1494 1495 1495 1495 1496 1496 1496 1496 1496 1496 1496 1496 1497 1497 1497 1497 1497 1497 1497 1497 1497 1497 1497 1497 1496 1496 1496 1496 1495 1495
1489 1490 1491 1491 1491 1491 1490 1490 1490 1490 1490 1491 1491 1491 1491 1492 1492 1493 1493 1494 1494 1494 1494 1494 1494 1494 1494 1494 1494 1494 1495 1495 1494 1494 1494 1494 1493 1493 1493 1493 1492 1492 1492
1484 1485 1486 1487 1487 1486 1486 1486 1486 1487 1487 1488 1488 1488 1489 1489 1490 1490 1491 1491 1492 1492 1492 1492 1492 1492 1492 1492 1492 1492 1492 1492 1492 1492 1491 1491 1491 1491 1491 1490 1490 1489 1489
1479 1481 1482 1482 1482 1482 1482 1482 1483 1484 1484 1485 1485 1486 1487 1487 1488 1488 1489 1489 1489 1490 1490 1490 1490 1490 1490 1490 1489 1489 1489 1490 1489 1489 1489 1489 1489 1489 1488 1488 1487 1487 1487
1474 1476 1477 1477 1477 1477 1477 1478 1479 1480 1481 1482 1483 1484 1485 1485 1486 1486 1487 1487 1488 1488 1488 1488 1488 1488 1488 1487 1487 1487 1487 1487 1487 1487 1487 1487 1486 1486 1486 1485 1485 1485 1484
1469 1471 1472 1472 1472 1473 1474 1475 1476 1477 1478 1480 1481 1482 1483 1483 1484 1485 1485 1486 1486 1486 1486 1486 1486 1486 1486 1485 1485 1485 1485 1485 1485 1485 1485 1484 1484 1484 1483 1483 1483 1483 1482
1465 1466 1467 1468 1468 1469 1470 1471 1473 1474 1476 1477 1478 1479 1480 1481 1482 1483 1483 1484 1484 1484 1484 1484 1484 1484 1484 1483 1483 1483 1483 1483 1482 1482 1482 1482 1481 1481 1481 1481 1481 1481 1480
1461 1462 1463 1464 1465 1465 1467 1468 1469 1471 1472 1474 1475 1476 1478 1479 1480 1481 1481 1481 1482 1482 1482 1482 1482 1482 1482 1481 1481 1481 1480 1480 1480 1479 1479 1479 1479 1479 1479 1479 1478 1478 1477
1457 1458 1459 1460 1461 1462 1463 1465 1466 1467 1469 1470 1472 1473 1475 1476 1477 1478 1479 1479 1479 1479 1480 1479 1479 1479 1479 1479 1478 1478 1478 1477 1477 1477 1476 1476 1476 1476 1476 1476 1475 1475 1474
1453 1454 1455 1456 1457 1458 1459 1461 1462 1464 1465 1467 1469 1470 1472 1473 1474 1475 1476 1476 1477 1477 1477 1477 1477 1476 1476 1476 1476 1475 1475 1474 1474 1474 1473 1473 1473 1473 1473 1472 1472 1471 1471
1450 1451 1451 1452 1453 1454 1456 1457 1458 1460 1462 1464 1465 1467 1468 1469 1471 1472 1472 1473 1473 1473 1473 1473 1473 1473 1473 1473 1472 1472 1472 1471 1471 1471 1470 1470 1470 1469 1469 1468 1468 1467 1466
1445 1446 1447 1448 1449 1450 1452 1453 1454 1456 1458 1459 1461 1463 1464 1466 1467 1467 1468 1469 1469 1469 1469 1469 1469 1469 1469 1469 1468 1468 1468 1467 1467 1467 1466 1466 1466 1465 1465 1464 1463 1462 1461
1441 1442 1443 1444 1445 1446 1447 1449 1450 1452 1453 1455 1456 1458 1459 1461 1462 1463 1464 1464 1464 1465 1464 1464 1465 1465 1465 1465 1464 1464 1464 1463 1463 1462 1462 1462 1461 1461 1460 1459 1459 1457 1456
1436 1437 1438 1439 1440 1441 1443 1444 1445 1447 1448 1449 1452 1453 1454 1456 1457 1458 1459 1459 1459 1459 1459 1459 1460 1460 1460 1460 1459 1459 1459 1459 1458 1458 1457 1457 1456 1456 1455 1454 1453 1452 1451
1430 1431 1432 1433 1434 1436 1437 1439 1440 1441 1443 1444 1446 1447 1449 1450 1451 1452 1452 1452 1452 1453 1454 1454 1454 1454 1454 1454 1454 1454 1453 1453 1453 1452 1452 1452 1451 1450 1449 1449 1448 1447 1445
1424 1425 1426 1427 1428 1430 1431 1432 1434 1435 1436 1437 1439 1440 1442 1443 1443 1444 1445 1445 1446 1446 1447 1447 1448 1448 1448 1448 1448 1448 1448 1447 1447 1447 1446 1446 1445 1444 1444 1443 1442 1441 1439
1419 1419 1420 1421 1422 1423 1425 1426 1427 1428 1429 1430 1432 1434 1435 1435 1436 1437 1438 1438 1439 1439 1440 1440 1441 1441 1441 1441 1442 1441 1441 1441 1441 1441 1440 1440 1439 1438 1438 1437 1436 1434 1433
1413 1414 1414 1415 1416 1417 1418 1420 1421 1422 1423 1424 1425 1426 1427 1427 1428 1429 1430 1430 1431 1432 1432 1432 1433 1433 1434 1434 1435 1435 1435 1435 1435 1434 1434 1433 1433 1432 1431 1430 1429 1428 1426
1407 1408 1409 1409 1410 1411 1413 1413 1415 1415 1416 1417 1418 1418 1419 1420 1420 1421 1422 1422 1423 1423 1424 1425 1425 1426 1426 1427 1427 1428 1428 1428 1428 1428 1427 1427 1426 1425 1424 1423 1422 1421 1420
1402 1402 1403 1404 1405 1405 1406 1407 1408 1409 1410 1410 1411 1411 1412 1412 1413 1413 1414 1414 1415 1415 1416 1417 1417 1418 1419 1420 1420 1421 1421 1422 1421 1421 1421 1420 1419 1418 1418 1416 1415 1414 1412
1397 1397 1397 1398 1399 1399 1400 1401 1402 1403 1403 1404 1404 1405 1405 1405 1406 1406 1406 1407 1407 1408 1408 1409 1410 1411 1412 1413 1414 1414 1415 1415 1415 1414 1414 1413 1412 1411 1410 1409 1408 1407 1405
1392 1392 1392 1393 1393 1394 1395 1395 1396 1397 1397 1398 1398 1398 1398 1398 1399 1399 1399 1400 1400 1401 1402 1403 1404 1405 1406 1406 1407 1408 1408 1408 1408 1407 1407 1406 1405 1404 1403 1402 1400 1399 1397